Regional Weather Roundup
Issued by NWS Cleveland, OH

Home | Current Version | Previous Version | Text Only | Print | Product List | Glossary Off
Versions: 1 2 3 4 5 6 7 8 9 10 11 12 13 14 15 16 17 18 19 20 21 22 23 24 25 26 27 28 29 30 31 32 33 34 35 36 37 38 39 40 41 42 43 44 45 46 47 48 49 50

000
ASUS41 KCLE 290002
RWRCLE
OHIO REGIONAL WEATHER ROUNDUP
NATIONAL WEATHER SERVICE CLEVELAND, OH
800 PM EDT SAT MAR 28 2015

NOTE: "FAIR" INDICATES FEW OR NO CLOUDS BELOW 12,000 FEET WITH NO
SIGNIFICANT WEATHER AND/OR OBSTRUCTIONS TO VISIBILITY.

OHZ001>008-015>018-024>027-034-035-043-044-290100-
   NORTHWEST OHIO

CITY           SKY/WX    TMP DP  RH WIND       PRES   REMARKS
DEFIANCE       CLEAR     34  10  37 CALM      30.30R
FINDLAY        CLEAR     31  11  43 NW5       30.28S WCI  26
TOLEDO EXPRESS CLEAR     32   8  36 W6        30.28R WCI  26
TOLEDO EXEC    CLEAR     31  10  41 W6        30.29S WCI  25
LIMA           CLEAR     32  15  49 NW6       30.29R WCI  26
$$

OHZ009>014-019>023-028>033-038-089-290100-
   NORTHEAST OHIO

CITY           SKY/WX    TMP DP  RH WIND       PRES   REMARKS
CLE-HOPKINS    CLEAR     25   9  50 NW6       30.32R WCI  18
CLE-LAKEFRONT  CLEAR     25  13  60 W8        30.30R WCI  16
CUY CO. ARPT   PTCLDY    25  16  68 NW9       30.29R WCI  15
LORAIN-ELYRIA  CLEAR     25  13  60 N3        30.30R
ASHTABULA      CLEAR     23   9  55 NW5       30.26R WCI  17
AKRON-CANTON   CLEAR     24   7  48 NW12      30.26R WCI  13
WOOSTER        CLEAR     24  10  55 NW9       30.28R WCI  14
MANSFIELD      CLEAR     23   9  55 NW3       30.27R
YOUNGSTOWN     PTCLDY    22   7  52 NW12      30.23R WCI  10
$$

OHZ042-051>053-060>062-070>072-077>081-290100-
  SOUTHWEST OHIO

CITY           SKY/WX    TMP DP  RH WIND       PRES   REMARKS
CINC-COVINGTON CLEAR     34   9  35 N7        30.29R WCI  28
CINC-LUNKEN    CLEAR     33  11  39 N6        30.33R WCI  28
HAMILTON       CLEAR     33  13  43 N7        30.32R WCI  27
DAYTON         CLEAR     30  14  51 N6        30.31R WCI  24
WRIGHT-PAT AFB NOT AVBL
DAYTON GENERAL CLEAR     32  12  43 NW8       30.29R WCI  25
WILMINGTON     CLEAR     30  12  47 N6        30.29R WCI  24
$$

OHZ036-037-039>041-045>050-054>059-063>069-073>076-082>088-290100-
  CENTRAL AND SOUTHEAST OHIO

CITY           SKY/WX    TMP DP  RH WIND       PRES   REMARKS
COLUMBUS       CLEAR     28  12  51 N7        30.30R WCI  21
OSU AIRPORT    CLEAR     27  11  51 N7        30.30R WCI  19
BOLTON FIELD   CLEAR    N/A N/A N/A N6        30.31R
RICKENBACK AFB CLEAR     29  11  46 NW8       30.30S WCI  21
NEWARK         CLEAR     27  12  53 NW8       30.29R WCI  19
MARION         CLEAR     26  11  52 NE3       30.29S
LANCASTER      CLEAR     29  15  56 N6        30.31R WCI  23
ZANESVILLE     CLEAR     26   9  48 N9        30.28R WCI  17
NEW PHILLY     CLEAR     27  10  49 NW9       30.29R WCI  18
$$


USA.gov is the U.S. government's official web portal to all federal, state and local government web resources and services.